Погода в Сахулях

Россия / Республика Бурятия     54°25′22″N   110°24′31″E
темп.,
°C
ветер,
м/с
пор.,
м/с
влажн.,
%
обл.,
%
осадки,
мм/ч
давл.,
гПа
погр.,
м
14 апреля, ср
ср1423:00−3зюз138794 0.4 1009186
02:00−4з128924 0.8 1010129
05:00−5зсз33782 0.0 101248
08:00−2зсз245023 0.1 1013900
11:00+1зсз353125 0.0 10132099
14:00+1зсз452935 0.0 10132255
17:00+1зсз263019 0.0 10122072
20:00−4зсз336282 0.0 101458
15 апреля, чт
чт1523:00−5зсз227083 0.0 101448
02:00−5з227278 0.0 101242
05:00−6юз2384100 0.1 1012108
08:00−4ююз1264100 0.1 1012509
11:00−1ююз2341100 0.0 10101635
14:00+1юз2333100 0.1 10092002
17:000з3341100 0.1 10101350
20:00−4зсз336374 0.1 101446
16 апреля, пт
пт1623:00−5сз32704 0.0 101653
02:00−6зсз226961 0.0 101846
05:00−6з2271100 0.0 102057
08:00−4юз3362100 0.0 1020511
11:00−1юз453988 0.0 10171368
14:00+2з454172 0.0 10151368
17:00+1з354676 0.0 1015875
20:00−3з3368100 0.0 101758
17 апреля, сб
сб1723:00−3зюз2378100 0.0 101672
02:00−3зюз228599 0.0 101430
05:00−3з018995 0.0 101418
08:000ю127180 0.0 1012292
11:00+6ююз345042 0.0 10081025
14:00+10юз37425 0.0 10051734
17:00+8з355079 0.0 10061058
20:00+2сз327975 0.0 100835
18 апреля, вс
вс1823:00+1зсз227745 0.0 100822
02:00+1зсз217838 0.0 100615
05:000сз218391 0.1 100722
08:00+3св127315 0.3 1008361
11:00+6ююз125672 0.0 10081063
14:00+7з44413 0.1 10081379
17:00+5зсз34451 0.0 1010696
20:00+1зсз347296 0.1 101096